Wind_Speed
19 18 19 19 19 18 17 16 16 16 16 16 16 16 15 15 14 14 14 15 15 15 15 16 16 16 16 17 17 18 18 18 17 17 17 16 16 16 15 15 15 15
17 17 17 17 17 16 15 14 14 14 14 14 14 13 13 13 13 13 13 14 15 15 15 16 16 16 17 17 17 18 18 19 19 19 20 19 19 19 18 18 18 18
15 15 14 14 14 14 13 13 12 12 12 12 12 12 13 13 14 15 15 16 17 17 18 18 19 19 19 19 20 20 20 20 20 20 20 21 21 21 21 21 21 21
13 13 13 13 13 12 11 11 11 11 11 11 12 13 13 14 15 16 17 18 19 20 20 21 22 22 23 23 23 23 23 23 23 23 23 22 22 22 22 23 23 23
12 12 11 11 10 9 8 8 8 9 9 9 10 11 12 13 14 16 17 18 19 20 21 22 22 23 24 24 24 25 25 26 26 26 27 27 26 26 25 24 24 25
10 10 9 9 8 7 6 6 6 6 7 8 8 10 12 13 14 16 17 18 20 21 21 22 23 23 24 24 24 24 25 25 25 26 26 27 28 28 28 28 27 28
9 9 9 8 7 6 5 6 6 6 7 8 10 11 13 15 17 18 20 21 21 22 23 23 24 24 25 25 25 26 26 25 26 26 26 27 27 28 28 28 29 30
9 8 8 7 6 5 5 5 6 7 8 10 11 13 15 17 19 20 21 22 23 23 24 24 25 25 25 26 26 27 27 27 26 27 27 28 29 29 29 29 30 31
6 6 5 5 6 6 6 6 7 8 9 11 12 14 16 18 20 22 23 23 24 24 24 24 25 25 25 25 26 26 27 27 27 27 27 28 29 30 30 29 30 31
4 3 3 3 4 5 6 8 9 10 11 13 14 16 18 20 22 23 24 24 25 25 25 24 24 25 25 25 24 24 25 26 27 27 27 27 28 28 29 29 29 30
5 3 1 1 2 4 7 9 11 13 14 15 17 19 21 23 24 25 25 26 26 25 25 24 24 24 25 24 24 24 24 25 26 26 26 27 27 27 27 27 28 29
7 6 5 4 4 6 8 10 13 15 16 17 19 20 22 24 25 26 26 27 27 26 26 25 25 25 25 24 25 25 26 26 26 26 26 27 27 27 27 27 27 29
10 9 7 6 6 7 9 11 13 16 17 18 19 21 22 24 26 27 27 27 27 27 26 26 26 26 25 25 26 26 27 27 27 28 28 28 28 29 29 29 29 29
13 11 10 8 7 8 9 12 14 17 18 19 20 22 23 25 26 27 28 28 28 27 27 27 27 26 25 26 26 27 27 28 28 29 30 31 32 32 31 30 30 30
16 14 12 10 9 9 11 14 16 18 19 21 22 23 25 26 26 27 28 28 28 28 28 27 27 26 25 25 25 26 27 28 28 28 29 31 32 33 32 30 29 29
18 15 13 11 10 11 13 15 17 19 21 22 24 25 26 27 28 28 29 29 29 29 29 28 27 26 25 24 24 24 25 26 27 27 27 27 28 30 31 29 26 25
19 16 14 12 11 12 14 16 18 20 22 24 25 26 27 28 29 29 29 29 30 30 30 29 28 27 26 26 24 22 22 23 24 24 24 22 22 25 27 26 23 22
19 17 14 12 12 13 14 16 19 21 22 24 25 27 28 29 29 30 30 30 30 30 30 30 30 29 27 27 25 22 20 20 20 21 22 20 20 21 23 23 23 22
19 16 14 13 13 14 15 17 20 21 22 24 26 27 28 29 29 30 30 30 30 31 31 31 31 30 28 26 25 23 20 20 20 20 21 21 21 21 22 21 22 22
19 16 15 14 14 15 17 18 20 21 22 24 25 27 28 29 29 30 30 30 30 30 31 32 31 30 28 26 24 22 20 20 20 21 21 22 21 21 21 20 19 21
18 16 15 14 14 16 17 18 19 21 22 24 25 26 27 28 28 29 29 29 30 30 31 32 31 29 27 26 24 22 21 20 21 21 21 22 22 20 19 19 19 21
17 16 14 14 15 17 18 18 19 21 22 24 25 25 26 27 27 28 29 29 29 30 31 32 32 29 27 26 24 22 21 21 21 21 21 22 22 21 20 19 18 20
16 15 15 15 16 17 18 19 20 21 22 23 25 26 26 27 28 28 29 29 30 30 30 32 32 29 26 26 24 22 22 22 22 23 23 23 23 23 22 20 18 20
15 15 15 15 16 17 18 19 20 21 22 23 24 26 27 27 28 30 30 30 30 30 30 31 32 29 26 25 24 21 20 22 24 26 27 27 26 26 25 22 21 23
15 14 15 15 17 18 19 20 21 22 22 23 24 25 27 28 28 30 31 31 30 30 29 29 31 30 26 25 24 21 20 22 25 27 29 29 27 28 28 27 28 30
14 14 15 16 17 19 19 20 21 22 23 23 24 25 26 28 28 29 31 32 31 30 30 28 29 29 27 25 24 21 20 22 25 27 29 30 30 31 32 33 33 34
Wind_Direction
98 96 94 91 88 85 82 79 75 73 70 66 63 59 54 50 46 43 40 38 35 31 28 25 21 19 18 15 13 9 7 7 5 2 1 359 357 354 351 347 344 341
98 95 94 91 88 85 81 79 76 73 70 66 61 56 50 45 38 33 30 26 22 19 17 14 11 10 7 5 3 359 357 356 354 352 351 350 347 345 343 339 337 333
97 94 91 88 85 82 79 75 72 68 63 57 51 45 38 32 25 20 16 13 11 8 6 5 3 1 359 357 355 353 352 350 348 345 343 342 341 339 337 335 332 330
95 90 86 83 80 77 74 69 63 57 49 43 38 30 24 18 13 8 5 4 2 0 359 357 357 355 354 352 350 349 349 348 346 343 340 339 338 336 334 332 329 327
93 87 83 79 77 73 68 64 59 51 42 35 27 19 12 5 1 357 355 355 354 353 352 351 352 351 349 347 346 345 344 343 343 342 339 338 338 338 336 334 330 327
94 89 84 78 75 69 59 54 49 40 30 22 14 6 0 356 352 350 349 349 349 348 347 347 347 347 344 343 342 340 340 339 338 338 336 334 334 334 335 334 332 329
98 89 82 74 66 59 48 38 29 20 14 8 2 356 353 351 349 348 348 347 346 345 344 344 344 343 342 340 339 338 338 338 337 335 333 331 330 329 329 330 328 325
102 92 84 73 63 54 39 26 12 4 1 357 355 352 350 349 347 347 346 345 344 344 343 343 343 342 341 340 339 338 337 337 336 335 332 330 329 327 326 326 324 321
115 103 89 72 59 47 33 22 8 359 354 349 347 346 345 345 344 344 344 343 343 343 342 343 342 341 340 340 339 338 336 335 334 332 331 328 326 325 324 324 321 318
146 127 98 63 41 30 19 13 5 356 350 344 342 341 341 342 342 342 343 342 342 342 342 342 341 339 339 339 338 337 334 333 331 329 327 324 322 320 319 319 316 313
181 188 192 304 342 355 357 358 356 351 347 342 339 339 339 339 340 341 341 341 341 341 341 340 339 338 338 337 337 336 333 330 329 326 324 321 318 315 314 313 310 308
210 220 233 262 299 326 339 345 347 345 342 338 335 335 334 334 335 336 337 337 337 337 337 336 336 336 336 336 335 333 332 330 327 324 320 317 314 312 310 308 305 304
220 227 240 260 286 311 327 334 337 337 335 332 331 330 329 330 330 332 333 333 333 333 333 333 333 334 334 334 334 333 331 328 325 322 318 314 312 310 308 307 305 303
224 231 242 257 277 300 316 323 327 329 329 328 328 327 327 328 329 329 329 329 330 330 330 330 331 332 332 334 334 332 330 326 322 319 316 314 312 311 310 309 308 306
226 233 241 253 273 294 308 316 322 325 326 327 327 327 327 327 328 328 328 327 328 328 328 329 329 330 332 335 334 330 326 323 319 317 315 314 312 312 311 311 311 310
226 232 241 255 276 293 305 313 320 323 325 326 326 326 326 326 326 326 326 326 327 326 326 327 328 329 332 334 333 328 324 321 318 315 314 311 310 311 311 312 312 310
226 234 245 260 277 291 302 312 318 321 323 323 323 322 322 323 324 324 324 325 325 325 325 325 326 328 332 333 332 329 324 318 314 312 310 308 306 308 309 310 310 307
228 237 248 262 276 288 301 311 315 317 318 318 318 318 319 320 321 321 322 323 322 322 322 323 323 326 331 333 332 330 323 314 308 306 305 304 303 304 304 305 305 305
231 240 250 262 275 289 300 307 309 311 313 313 314 315 315 316 317 318 319 319 319 319 319 320 322 326 331 334 331 328 322 313 306 303 301 300 300 301 301 300 301 301
234 242 252 264 277 290 298 302 305 307 310 310 310 311 312 313 314 315 316 316 316 317 317 317 320 326 331 333 329 325 320 312 306 301 299 297 297 297 297 296 295 297
236 243 254 267 280 289 295 299 303 306 308 309 309 310 310 311 312 313 313 313 314 315 315 316 320 327 331 331 328 324 318 311 306 301 298 296 295 294 294 294 292 292
236 245 257 270 281 288 294 299 303 306 307 308 309 309 310 311 311 311 311 312 313 315 316 316 319 326 331 329 326 323 317 312 307 303 299 296 294 293 293 292 291 289
238 250 263 275 283 289 296 300 304 306 308 309 309 309 310 311 311 311 311 312 313 315 316 316 318 326 330 327 324 321 316 311 307 303 299 295 293 293 293 292 290 288
244 256 269 278 285 292 298 302 304 306 307 308 309 309 310 310 310 310 310 311 312 314 316 316 317 324 328 324 322 321 314 308 306 304 300 297 295 294 292 290 288 288
251 263 273 281 288 294 298 300 303 305 306 307 307 308 308 308 308 308 307 309 311 312 314 315 317 322 325 323 322 320 311 305 304 302 299 297 295 294 293 291 289 291
258 268 277 284 290 295 297 299 303 304 305 306 306 305 305 304 305 306 306 307 310 311 313 315 318 321 324 324 323 318 308 303 302 299 297 297 296 294 292 291 290 292
Height
854 855 855 856 857 858 858 859 859 859 860 860 860 861 861 861 862 861 861 860 860 859 858 857 856 854 852 851 850 850 850 849 849 848 848 847 847 846 846 846 845 845
856 856 857 857 858 859 860 860 860 860 861 861 861 862 862 862 862 862 861 861 860 860 859 857 855 853 852 851 850 850 849 848 848 847 846 846 845 845 844 844 843 843
857 857 858 858 859 860 860 861 861 861 861 862 862 862 863 863 862 862 861 861 860 859 857 856 854 853 851 851 850 849 849 848 847 846 845 845 844 843 842 841 841 840
858 858 859 859 860 860 861 861 861 861 862 862 862 862 863 862 862 861 860 859 858 857 856 854 853 852 851 850 849 848 847 846 846 844 844 843 842 841 841 840 839 838
858 859 859 860 860 861 861 862 862 862 863 863 863 862 862 862 861 860 860 859 858 857 856 854 853 852 850 849 848 847 846 845 844 843 841 840 839 838 838 837 836 835
859 860 860 861 861 861 862 862 862 863 863 863 862 862 862 861 861 860 859 858 857 856 855 854 852 851 850 849 847 846 846 844 843 842 840 839 837 836 836 835 833 832
859 860 860 861 862 862 862 862 862 862 862 862 862 862 861 861 860 859 858 857 856 854 853 852 851 850 848 847 846 845 844 843 842 840 839 838 836 835 835 834 832 830
860 860 861 861 862 862 862 862 862 862 862 862 861 861 860 859 858 857 856 855 854 853 852 850 849 848 846 845 844 843 842 841 840 838 837 836 834 833 833 832 831 829
860 860 861 861 861 861 861 861 861 861 861 860 860 859 859 858 856 855 854 853 852 851 849 848 847 846 845 844 842 841 840 838 838 836 835 834 832 831 830 830 829 827
859 860 860 860 860 860 860 860 860 859 859 858 858 857 856 855 854 853 852 851 849 848 847 846 845 843 842 841 840 839 838 836 835 834 833 832 831 830 828 827 826 824
858 858 859 859 859 859 858 858 857 857 856 856 855 854 853 852 851 850 849 848 847 846 845 843 842 841 840 839 838 837 836 834 833 832 831 830 828 827 826 825 824 822
857 857 857 857 857 857 856 855 855 855 854 853 853 852 851 850 849 848 847 846 845 843 842 841 840 839 838 837 835 834 833 832 830 829 828 827 825 824 824 823 822 820
855 856 856 856 855 854 854 853 853 853 852 852 851 850 849 848 847 846 845 844 843 842 840 839 838 837 835 834 833 832 830 829 827 826 825 823 822 821 820 819 818 817
854 854 854 853 853 852 852 851 851 851 850 849 849 848 847 846 845 844 843 842 841 839 838 837 835 834 833 832 831 829 828 826 825 823 821 819 818 816 816 815 814 813
852 852 851 851 850 849 849 849 848 848 847 847 846 845 844 843 842 841 840 839 838 837 836 834 833 832 831 830 829 827 826 824 822 821 819 816 814 813 812 811 810 809
850 850 849 848 848 847 847 846 846 845 845 844 843 842 842 841 840 839 837 836 835 833 833 832 830 830 829 829 828 826 824 822 820 818 817 814 812 810 808 808 807 806
847 847 846 846 845 844 844 844 843 843 842 842 841 840 839 838 837 836 834 833 832 831 830 829 828 827 827 826 826 824 823 821 818 816 814 812 811 808 806 805 804 803
845 844 844 843 842 842 842 841 841 841 840 839 839 838 837 836 835 833 832 831 830 828 827 826 825 825 824 824 822 822 821 819 817 814 812 810 809 807 805 803 801 800
841 841 841 840 840 840 839 839 839 838 838 837 836 836 835 834 833 831 830 829 827 826 824 823 822 822 821 820 819 818 818 816 814 812 810 808 806 805 803 801 800 798
838 838 838 838 838 838 837 837 837 836 836 835 834 834 833 831 830 829 828 826 825 823 822 820 819 819 818 818 816 815 815 814 812 809 807 805 803 802 801 799 798 796
835 836 836 836 836 836 836 835 835 834 833 833 832 831 830 829 828 826 825 824 822 821 819 817 816 816 816 814 813 812 812 810 808 806 804 801 800 799 798 796 795 793
833 833 834 834 834 834 833 833 832 831 831 830 829 828 827 826 825 824 822 821 820 818 816 814 813 813 813 811 810 810 808 806 804 802 800 798 797 796 795 793 792 791
831 832 832 832 832 831 831 830 829 829 828 827 826 825 824 823 822 821 819 818 816 815 813 811 809 810 810 808 807 807 805 803 801 799 797 795 793 793 792 790 789 788
829 829 829 829 829 828 827 827 826 826 825 825 824 822 821 820 819 817 816 815 814 812 811 808 806 807 807 805 804 804 803 801 799 796 794 792 790 789 788 787 786 785
826 827 826 826 826 825 825 824 824 823 823 822 821 820 818 817 816 814 812 812 811 809 808 806 804 803 804 802 801 801 800 799 797 794 791 789 787 785 784 783 781 779
824 824 824 824 823 822 822 821 821 820 820 819 818 817 816 814 813 812 809 808 807 806 805 804 802 800 800 799 798 797 797 796 794 792 789 786 784 781 779 776 775 773